APSTAR 6

导读

APSTAR 6即亚太6号卫星,是中国亚太通信卫星有限公司运营的固定通信卫星,2005年4月12日于西昌卫星发射中心,由长征三号乙运载火箭发射升空,定点于东经134°地球静止轨道。 该星由法国公司基于空间客车4000C2平台研制,设计寿命15年,配置C、Ku频段转发器,覆盖亚太等区域,提供通信广播服务,也是中国首颗具备抗干扰能力的商用通信卫星,保障信号传输安全。

基本信息
目录编号:
28638
目录名称:
APSTAR 6
国际标识:
2005-012A
轨道中心:
EARTH
卫星名称:
APSTAR 6
卫星全名:
--
卫星状态:
在轨 (已飞行7734 天)
发射日期:
2005-04-12 UTC
国别 :
中国 (CN)
星等 :
--
轨道信息
数据来源 国际轨道数据 AOE轨道数据
星历时间 2026-06-15T04:07:29+0800
5小时前
查看轨道信息
2026-06-15T05:00:00+0800
5小时前
查看轨道信息
半长轴 42648.655km 42648.338km
偏心率 0.0009248 0.00094
轨道倾角 7.358° 7.359°
近地点辐角 311.824° 311.432°
升交点赤经 69.285° 69.284°
平近点角 220.519° 233.860°
近地点 36231.076km 36230.111km
远地点 36309.96km 36310.291km
周期 1460.891分钟 1460.874分钟
每日圈数 0.9857 0.985711
详细信息
使用方式:
暂无
2D轨道图
3D轨道图
轨道高度分析图
轨道倾角分析图
轨道综合分析图
查看轨道综合分析图